Location: Alsip
(41.6689°N, 87.7387°W)
Time: 13:00:29
(UTC+00:00)

Cosmos 1980 Rocket - Pass Details

Date: 14 July 2020
Orbit: 828 x 851 km, 71.0° (Epoch: 04 August)

Event Time Altitude Azimuth Distance (km) Brightness Sun altitude
Rises 08:29:07 0° 336° (NNW) 3,426 5.8 -17.6°
Reaches altitude 10° 08:31:35 10° 338° (NNW) 2,485 5.0 -17.3°
Maximum altitude 08:37:19 83° 66° (ENE) 861 2.3 -16.7°
Drops below altitude 10° 08:42:59 10° 155° (SSE) 2,460 4.4 -16.0°
Sets 08:45:25 0° 156° (SSE) 3,387 5.1 -15.7°
